Location: Lawrence
(38.9720°N, 95.2350°W)
Time: 12:01:13
(UTC-05:00)

ISS - Visible Passes

Search period start: 22 September 2018 00:00
Search period end: 02 October 2018 00:00
Orbit: 403 x 408 km, 51.6° (Epoch: 22 September)

Date Brightness Start Highest point End Pass type
(mag) Time Alt. Az. Time Alt. Az. Time Alt. Az.
22 Sep -2.6 21:09:11 10° WSW 21:12:18 39° NNW 21:12:28 39° NNW visible
23 Sep -3.7 20:17:07 10° WSW 20:20:24 74° NW 20:23:10 14° NE visible
23 Sep -0.4 21:55:20 10° WNW 21:55:53 12° NW 21:55:53 12° NW visible
24 Sep -1.5 21:02:40 10° WNW 21:05:15 21° NNW 21:06:23 18° N visible
25 Sep -2.1 20:10:12 10° W 20:13:12 32° NNW 20:16:13 10° NE visible
26 Sep -1.0 20:56:31 10° NW 20:58:17 14° NNW 20:59:41 11° N visible
27 Sep -1.3 20:03:44 10° WNW 20:06:07 18° NNW 20:08:31 10° NNE visible
28 Sep -0.9 20:50:52 10° NNW 20:51:23 10° N 20:51:54 10° N visible
29 Sep -1.0 19:57:38 10° NW 19:59:06 12° NNW 20:00:35 10° NNE visible
